Weather in Jacksonville Beach

United States     30°17′02″N   81°23′46″W
temp.,
°C
wind,
m/s
gust,
m/s
humid.,
%
clouds,
%
prec.,
mm/h
press.,
hPa
HPBL,
m
26 may, thu
thu2623:00+25se4978100 0.0 1020651
02:00+24se3982100 0.0 1019599
05:00+24se3984100 0.0 1018587
08:00+24sse3881100 0.0 1020762
11:00+30sse4649100 0.0 10201672
14:00+32se674398 0.0 10181792
17:00+30se6852100 0.0 1016903
20:00+26se51173100 0.0 1016606
27 may, fri
fri2723:00+25s41172100 0.0 1017664
02:00+24s31075100 0.0 1016476
05:00+23s3981100 0.0 1015411
08:00+24ssw387557 0.0 1016387
11:00+31sw474539 0.0 10151815
14:00+33ssw684090 0.1 10132446
17:00+30sw384553 0.1 10121271
20:00+29ssw37511 0.1 10121041
28 may, sat
sat2823:00+25wsw267119 0.4 1013377
02:00+23sw39800 0.4 1012348
05:00+22w26810 0.0 1012201
08:00+24nw23660 0.0 1013283
11:00+31nw13320 0.0 10141696
14:00+34ese15240 0.0 10122753
17:00+31ese553815 0.0 1011911
20:00+26se4858100 0.0 1012566
29 may, sun
sun2923:00+25se38690 0.0 1014417
02:00+23s24810 0.1 1013154
05:00+22ssw11780 0.0 101444
08:00+25sse11630 0.0 1016176
11:00+31se33390 0.0 10161196
14:00+32ese65433 0.0 10161453
17:00+31ese56490 0.0 10151069
20:00+27se58676 0.0 1016846
30 may, mon
mon3023:00+25se267760 0.0 1018432
02:00+24se248449 0.0 1018192
05:00+24se23902 0.0 1018119
08:00+26se13760 0.1 1020362
11:00+31e44510 0.0 10201514
14:00+32e55472 0.0 10201723
17:00+30e55520 0.0 10191519
20:00+26e47720 0.0 1019803